Find O3b mPOWER F3

NORAD ID: 56368 Int'l Des: 2023-059 Owner: O3BS Country: UK operational
MEOCIRCULAR

リアルタイム位置

3D地球を読み込み中...

O3b mPOWER F3について

説明を読み込み中...

次回通過

Passes for default location (London). Set your location on the main map for personalized predictions.

高度履歴

Loading altitude history...

軌道要素

1 56368U 23059B 26106.84129589 -.00000013 00000-0 00000-0 0 9993
2 56368 0.0659 3.3280 0006628 25.6446 331.0660 5.00116628 51661
Epoch: Apr 16, 2026 • Age: 19 hours

現在のステータス

高度 8057.5 km
速度 5.26 km/s
衛星直下点 -0.02°S, 88.74°W
打ち上げ日 Apr 28, 2023
運用期間 2.9 years
タイプ other

技術仕様

分類 Payload
質量 1700.00 kg
乾燥質量 1700.00 kg
総質量 1700.00 kg
長さ 1.20 m
直径 3.00 m
スパン 27.00 m
形状 Box + 2 pan
製造者 BOES
バスタイプ 702X
フェーズステータス Renamed
所有者/国 O3BS/UK

Most Searched